CW9098 Weather Reports


Display with metric or nautical units.
time (UTC)temp
F
wind
direction
speed
MPH
gust
MPH
rain 1hr
in
rain 24hr
in
rain mn
in
humidity
%
barometer
mb
20260502161633 46 279 1.0 11.0 0.00 0.20 0.01 62 1014.3
20260502161130 47 318 2.0 7.0 0.00 0.20 0.01 63 1014.3
20260502160625 47 284 0.0 10.0 0.00 0.22 0.01 63 1014.4
20260502160141 46 266 3.0 10.0 0.00 0.22 0.01 63 1014.4
20260502152135 47 270 8.0 16.0 0.00 0.22 0.01 64 1014.4
20260502151621 47 197 11.0 16.0 0.00 0.22 0.01 65 1014.2
20260502151137 48 237 7.0 13.0 0.00 0.22 0.01 62 1014.3
20260502150623 47 253 2.0 16.0 0.01 0.24 0.01 65 1014.2
20260502150118 47 251 7.0 16.0 0.01 0.24 0.01 66 1014.3
20260502140121 46 279 1.0 7.0 0.00 0.27 0.00 69 1014.0
20260502130658 43 114 1.0 3.0 0.00 0.33 0.00 77 1014.5
20260502130123 43 118 0.0 2.0 0.00 0.33 0.00 79 1014.6
20260502123623 41 160 0.0 3.0 0.00 0.33 0.00 87 1014.7
20260502123118 40 160 0.0 0.0 0.00 0.33 0.00 88 1014.7
20260502122650 39 160 0.0 0.0 0.00 0.33 0.00 88 1014.6
20260502122122 39 160 0.0 0.0 0.00 0.33 0.00 88 1014.7
20260502121616 38 160 0.0 3.0 0.00 0.33 0.00 88 1014.7
20260502121131 38 162 0.0 3.0 0.00 0.33 0.00 88 1014.6
20260502120625 37 160 0.0 0.0 0.00 0.41 0.00 88 1014.7
20260502120120 37 161 0.0 0.0 0.00 0.41 0.00 88 1014.7
20260502115636 37 160 0.0 0.0 0.00 0.41 0.00 88 1014.8
20260502115122 36 160 0.0 0.0 0.00 0.41 0.00 88 1014.9
20260502114637 36 160 0.0 0.0 0.00 0.41 0.00 88 1014.9
20260502114126 36 160 0.0 0.0 0.00 0.41 0.00 88 1015.1
20260502113639 36 160 0.0 0.0 0.00 0.41 0.00 88 1015.0
20260502113146 35 161 0.0 5.0 0.00 0.41 0.00 88 1015.0
20260502112621 35 160 0.0 5.0 0.00 0.41 0.00 88 1014.9
20260502112136 35 160 0.0 0.0 0.00 0.41 0.00 88 1014.8
20260502111623 35 160 0.0 0.0 0.00 0.41 0.00 88 1014.8
20260502111139 34 160 0.0 0.0 0.00 0.41 0.00 88 1014.8
20260502110626 34 160 0.0 0.0 0.00 0.42 0.00 88 1014.7
20260502110120 34 160 0.0 0.0 0.00 0.42 0.00 88 1014.7
20260502105636 33 160 0.0 0.0 0.00 0.42 0.00 88 1014.7
20260502105124 33 160 0.0 0.0 0.00 0.42 0.00 88 1014.8
20260502104618 33 160 0.0 0.0 0.00 0.42 0.00 88 1014.7
20260502104155 33 160 0.0 0.0 0.00 0.42 0.00 88 1014.8
20260502103621 33 160 0.0 2.0 0.00 0.42 0.00 88 1014.8
20260502103153 33 160 1.0 3.0 0.00 0.42 0.00 88 1014.7
20260502102620 34 160 2.0 3.0 0.00 0.42 0.00 88 1014.7
20260502102133 34 160 0.0 0.0 0.00 0.42 0.00 88 1014.8
20260502101627 34 160 0.0 1.0 0.00 0.42 0.00 88 1014.8
20260502101123 34 160 0.0 2.0 0.00 0.42 0.00 88 1014.8
20260502100617 34 160 0.0 2.0 0.00 0.42 0.00 88 1014.8
20260502100132 34 160 0.0 0.0 0.00 0.42 0.00 88 1014.8
20260502091138 35 135 0.0 3.0 0.00 0.42 0.00 87 1014.7
20260502090622 35 135 1.0 3.0 0.00 0.42 0.42 87 1014.7
20260502090157 34 135 0.0 0.0 0.00 0.42 0.42 87 1014.7
20260502071126 39 261 1.0 7.0 0.00 0.41 0.41 81 1014.2
20260502070619 39 268 1.0 4.0 0.00 0.41 0.41 81 1014.1
20260502070133 39 249 1.0 4.0 0.00 0.41 0.41 81 1014.0
20260502065622 39 301 0.0 10.0 0.00 0.41 0.41 81 1014.0
20260502065116 39 300 4.0 10.0 0.00 0.41 0.41 81 1014.0
20260502064626 39 319 5.0 9.0 0.00 0.41 0.41 81 1014.0
20260502064122 39 318 1.0 5.0 0.00 0.41 0.41 81 1013.9
20260502063634 39 329 1.0 5.0 0.00 0.41 0.41 81 1013.8
20260502063120 40 298 1.0 4.0 0.00 0.41 0.41 80 1013.8
20260502062657 40 295 1.0 6.0 0.00 0.41 0.41 80 1013.8
20260502062122 40 296 2.0 8.0 0.00 0.41 0.41 80 1013.7
20260502061656 40 323 3.0 9.0 0.00 0.41 0.41 80 1013.9
20260502061142 40 346 4.0 9.0 0.00 0.41 0.41 80 1013.9
20260502060656 40 14 0.0 9.0 0.00 0.41 0.41 81 1014.0
20260502060122 41 307 7.0 9.0 0.00 0.41 0.41 80 1014.0
20260502055659 41 326 0.0 5.0 0.00 0.41 0.41 81 1014.1
20260502055145 41 45 1.0 9.0 0.00 0.41 0.41 81 1014.1
20260502054659 41 323 2.0 11.0 0.00 0.41 0.41 81 1014.1
20260502054142 42 360 6.0 12.0 0.00 0.41 0.41 81 1014.0
20260502053634 42 16 5.0 12.0 0.00 0.41 0.41 82 1014.0
20260502053127 42 343 7.0 11.0 0.00 0.41 0.41 84 1014.0
20260502052623 42 317 1.0 10.0 0.00 0.41 0.41 85 1013.9
20260502052156 43 295 6.0 11.0 0.00 0.41 0.41 85 1013.9
20260502051622 42 319 6.0 10.0 0.01 0.41 0.41 85 1013.9
20260502051159 42 301 4.0 8.0 0.01 0.41 0.41 86 1013.8
20260502050625 42 235 0.0 4.0 0.01 0.41 0.41 85 1013.7
20260502050139 42 234 1.0 3.0 0.01 0.41 0.41 85 1013.7
20260502045633 42 220 0.0 5.0 0.01 0.41 0.41 85 1013.6
20260502045139 42 222 2.0 5.0 0.01 0.41 0.41 85 1013.5
20260502044626 43 234 0.0 3.0 0.01 0.41 0.41 85 1013.6
20260502044140 43 234 1.0 3.0 0.01 0.41 0.41 85 1013.6
20260502043626 43 234 0.0 4.0 0.01 0.41 0.41 84 1013.6
20260502043140 43 237 2.0 9.0 0.01 0.41 0.41 84 1013.7
20260502042635 43 239 4.0 10.0 0.01 0.41 0.41 84 1013.6
20260502042143 43 263 3.0 7.0 0.01 0.41 0.41 84 1013.8
20260502041652 43 259 2.0 7.0 0.00 0.40 0.40 83 1013.7
20260502041126 44 265 2.0 7.0 0.00 0.40 0.40 83 1013.6
20260502040640 44 245 1.0 7.0 0.00 0.40 0.40 83 1013.4
20260502040147 44 212 3.0 10.0 0.00 0.40 0.40 82 1013.4
20260502035634 44 225 2.0 11.0 0.00 0.40 0.40 81 1013.2
20260502035123 45 225 5.0 11.0 0.00 0.40 0.40 80 1013.2
20260502034636 45 231 5.0 9.0 0.00 0.40 0.40 79 1013.4
20260502034123 45 254 2.0 11.0 0.00 0.40 0.40 79 1013.4
20260502033636 45 284 6.0 10.0 0.00 0.40 0.40 78 1013.4
20260502033123 45 243 6.0 11.0 0.00 0.40 0.40 78 1013.3
20260502032618 45 220 4.0 13.0 0.00 0.40 0.40 78 1013.1
20260502032132 45 235 7.0 13.0 0.00 0.40 0.40 79 1013.0
20260502031619 45 207 7.0 10.0 0.00 0.40 0.40 79 1013.1
20260502031135 45 223 4.0 10.0 0.00 0.40 0.40 80 1013.0
20260502030641 46 214 1.0 9.0 0.00 0.40 0.40 80 1013.1
20260502030147 46 254 4.0 9.0 0.00 0.40 0.40 80 1012.9
20260502025701 46 191 4.0 9.0 0.00 0.40 0.40 79 1013.0
20260502025126 46 203 2.0 15.0 0.00 0.40 0.40 79 1012.9
20260502024620 46 224 6.0 15.0 0.00 0.40 0.40 79 1012.9
20260502024132 46 241 3.0 14.0 0.00 0.40 0.40 79 1012.7
20260502023639 46 226 4.0 23.0 0.00 0.40 0.40 79 1012.9
20260502023130 47 223 13.0 23.0 0.01 0.40 0.40 79 1012.8
20260502022625 47 221 15.0 22.0 0.01 0.40 0.40 79 1012.8
20260502022138 47 230 8.0 22.0 0.01 0.40 0.40 80 1012.6
20260502021624 48 218 7.0 16.0 0.01 0.40 0.40 81 1012.5
20260502021120 48 273 10.0 16.0 0.01 0.40 0.40 81 1012.4
20260502020633 48 258 8.0 14.0 0.01 0.40 0.40 81 1012.4
20260502020121 47 188 8.0 11.0 0.01 0.40 0.40 82 1012.3
20260502015635 47 203 5.0 10.0 0.01 0.40 0.40 83 1012.2
20260502015121 47 199 0.0 6.0 0.01 0.40 0.40 83 1012.1
20260502014635 47 185 3.0 6.0 0.01 0.40 0.40 84 1012.0
20260502014123 47 187 2.0 5.0 0.01 0.40 0.40 84 1012.0
20260502013638 46 185 3.0 5.0 0.01 0.40 0.40 83 1011.9
20260502013124 46 222 2.0 3.0 0.00 0.39 0.39 83 1012.0
20260502012639 46 222 0.0 3.0 0.00 0.39 0.39 83 1012.0
20260502012125 46 224 1.0 3.0 0.00 0.39 0.39 83 1011.9
20260502011619 46 222 0.0 0.0 0.00 0.39 0.39 81 1011.9
20260502011135 47 222 0.0 0.0 0.00 0.39 0.39 81 1011.8
20260502010622 47 222 0.0 0.0 0.00 0.39 0.39 81 1011.5
20260502010135 47 222 0.0 0.0 0.01 0.39 0.39 80 1011.6
20260502005624 48 222 0.0 0.0 0.01 0.39 0.39 80 1011.4
20260502005138 48 222 0.0 0.0 0.01 0.39 0.39 80 1011.5
20260502004645 48 222 0.0 0.0 0.01 0.39 0.39 80 1011.4
20260502004119 48 222 0.0 2.0 0.01 0.39 0.39 80 1011.2
20260502003628 48 222 0.0 2.0 0.01 0.39 0.39 80 1011.2
20260502003121 49 222 0.0 4.0 0.01 0.39 0.39 79 1011.2
20260502002617 49 224 1.0 7.0 0.01 0.39 0.39 79 1011.2
20260502002132 49 234 3.0 11.0 0.01 0.39 0.39 78 1011.3
20260502001627 49 267 6.0 15.0 0.01 0.39 0.39 78 1011.4
20260502001123 49 253 7.0 15.0 0.01 0.39 0.39 77 1011.4
20260502000636 50 247 5.0 7.0 0.01 0.39 0.39 77 1011.3
20260502000143 50 278 3.0 8.0 0.00 0.38 0.38 76 1011.3
20260501235637 50 276 3.0 11.0 0.00 0.38 0.38 75 1011.3
20260501235124 50 300 5.0 11.0 0.00 0.38 0.38 74 1011.3
20260501234640 51 239 1.0 8.0 0.00 0.38 0.38 73 1011.1
20260501234136 51 217 2.0 12.0 0.00 0.38 0.38 71 1011.0
20260501233624 51 247 7.0 12.0 0.00 0.38 0.38 70 1010.9
20260501233137 51 278 7.0 17.0 0.01 0.38 0.38 68 1010.7
20260501232625 51 231 8.0 17.0 0.01 0.38 0.38 67 1010.6
20260501232120 52 218 6.0 19.0 0.01 0.38 0.38 66 1010.5
20260501231635 52 236 9.0 19.0 0.01 0.38 0.38 67 1010.5
20260501231125 52 248 3.0 12.0 0.01 0.38 0.38 66 1010.5
20260501230620 52 262 6.0 11.0 0.01 0.38 0.38 66 1010.3
20260501230155 53 282 4.0 9.0 0.01 0.38 0.38 66 1010.3
20260501225642 52 285 4.0 13.0 0.01 0.38 0.38 66 1010.3
20260501225134 52 250 7.0 13.0 0.01 0.38 0.38 65 1010.2
20260501224621 52 289 4.0 11.0 0.01 0.38 0.38 64 1010.2
20260501224118 53 264 5.0 12.0 0.02 0.38 0.38 64 1010.1
20260501223628 53 278 4.0 17.0 0.02 0.38 0.38 64 1009.9
20260501223124 53 226 10.0 17.0 0.01 0.37 0.37 63 1010.1
20260501222640 53 239 8.0 18.0 0.01 0.37 0.37 62 1010.2
20260501222132 53 244 9.0 18.0 0.01 0.37 0.37 61 1010.2
20260501221626 54 245 7.0 17.0 0.01 0.37 0.37 61 1010.0
20260501221122 54 306 10.0 16.0 0.01 0.37 0.37 60 1010.0
20260501220635 54 296 3.0 18.0 0.01 0.37 0.37 60 1009.8
20260501220123 55 243 7.0 17.0 0.01 0.37 0.37 58 1009.9
20260501215639 55 252 7.0 17.0 0.02 0.37 0.37 58 1010.1
20260501215123 55 260 9.0 14.0 0.02 0.37 0.37 56 1010.0
20260501214638 55 272 7.0 15.0 0.01 0.36 0.36 55 1009.8
20260501214125 55 264 9.0 15.0 0.01 0.36 0.36 54 1009.9
20260501213619 56 278 7.0 17.0 0.01 0.36 0.36 54 1009.8
20260501213134 57 220 8.0 17.0 0.02 0.36 0.36 52 1009.7
20260501212622 57 235 8.0 14.0 0.02 0.36 0.36 52 1009.6
20260501212136 57 249 5.0 14.0 0.02 0.36 0.36 53 1009.7
20260501211623 57 283 3.0 15.0 0.02 0.36 0.36 54 1009.8
20260501211139 56 245 7.0 15.0 0.02 0.36 0.36 51 1009.8
20260501210625 57 291 9.0 15.0 0.02 0.36 0.36 52 1009.6
20260501210119 57 272 9.0 19.0 0.02 0.35 0.35 48 1009.6
20260501205635 57 249 11.0 19.0 0.02 0.35 0.35 45 1009.6
20260501205144 58 266 5.0 20.0 0.02 0.35 0.35 45 1009.5
20260501204618 58 241 10.0 20.0 0.03 0.35 0.35 45 1009.6
20260501204156 58 226 6.0 18.0 0.03 0.35 0.35 44 1009.4
20260501203621 58 237 8.0 24.0 0.03 0.35 0.35 43 1009.5
20260501203115 59 225 10.0 25.0 0.02 0.34 0.34 42 1009.5
20260501202627 59 230 15.0 25.0 0.02 0.34 0.34 42 1009.5
20260501202139 59 242 9.0 16.0 0.02 0.34 0.34 44 1009.4
20260501201631 58 207 9.0 16.0 0.03 0.34 0.34 44 1009.5
20260501201128 58 166 7.0 20.0 0.03 0.34 0.34 45 1009.6
20260501200642 57 166 12.0 20.0 0.02 0.33 0.33 45 1009.7
20260501200134 57 250 10.0 17.0 0.02 0.33 0.33 49 1009.9
20260501195623 57 278 8.0 14.0 0.02 0.33 0.33 50 1010.0
20260501195136 57 164 2.0 10.0 0.03 0.33 0.33 53 1009.9
20260501194622 57 273 3.0 10.0 0.02 0.32 0.32 53 1009.9
20260501194139 57 200 1.0 11.0 0.02 0.32 0.32 50 1009.9
20260501193625 57 174 8.0 19.0 0.02 0.32 0.32 51 1009.8
20260501193139 57 174 8.0 21.0 0.02 0.32 0.32 51 1009.7
20260501192626 57 179 8.0 24.0 0.02 0.32 0.32 52 1009.8
20260501192200 57 241 8.0 19.0 0.03 0.32 0.32 54 1009.9
20260501191626 57 213 0.0 4.0 0.02 0.31 0.31 54 1009.6
20260501191140 57 213 1.0 6.0 0.02 0.31 0.31 53 1009.7
20260501190633 57 232 3.0 6.0 0.03 0.31 0.31 54 1009.9
20260501190123 57 298 0.0 2.0 0.03 0.31 0.31 56 1009.8
20260501185639 57 298 0.0 3.0 0.03 0.31 0.31 57 1009.8
20260501185125 56 298 1.0 5.0 0.03 0.30 0.30 57 1009.8
20260501184634 56 298 2.0 9.0 0.03 0.30 0.30 57 1009.8
20260501184121 56 296 1.0 11.0 0.04 0.30 0.30 58 1010.0
20260501183615 56 286 6.0 13.0 0.04 0.30 0.30 58 1010.1
20260501183130 57 247 6.0 13.0 0.04 0.30 0.30 55 1010.1
20260501182626 57 242 3.0 9.0 0.03 0.29 0.29 53 1010.2
20260501182140 57 270 1.0 7.0 0.04 0.29 0.29 53 1010.3
20260501181626 58 183 1.0 10.0 0.04 0.29 0.29 51 1010.3
20260501181121 59 203 4.0 10.0 0.04 0.29 0.29 51 1010.3
20260501180635 59 189 1.0 8.0 0.04 0.29 0.28 51 1010.2
20260501180121 59 191 4.0 9.0 0.04 0.29 0.28 53 1010.2
20260501175637 59 218 5.0 9.0 0.03 0.28 0.27 51 1010.2
20260501175125 59 179 3.0 12.0 0.03 0.28 0.27 49 1010.3
20260501174639 60 186 7.0 16.0 0.03 0.28 0.27 48 1010.3
20260501174126 60 201 3.0 14.0 0.02 0.27 0.26 50 1010.4
20260501173618 61 210 4.0 13.0 0.02 0.27 0.26 52 1010.4
20260501173155 61 169 7.0 15.0 0.02 0.27 0.26 51 1010.5
20260501172643 61 210 5.0 11.0 0.03 0.27 0.26 55 1010.6
20260501172137 60 187 8.0 22.0 0.02 0.26 0.25 55 1010.6
20260501171625 59 178 8.0 22.0 0.02 0.26 0.25 52 1010.8
20260501171201 59 135 5.0 10.0 0.02 0.26 0.25 53 1010.8
20260501170627 60 195 3.0 12.0 0.01 0.25 0.24 50 1010.9
20260501170159 59 151 6.0 12.0 0.01 0.25 0.24 56 1011.0
20260501165626 59 187 7.0 15.0 0.01 0.25 0.24 53 1011.0
20260501165158 59 190 7.0 14.0 0.02 0.25 0.24 56 1011.0
20260501164625 59 197 7.0 14.0 0.02 0.25 0.24 56 1011.3
20260501164121 59 178 9.0 15.0 0.02 0.25 0.24 57 1011.4
20260501163634 58 178 3.0 18.0 0.02 0.25 0.24 58 1011.4
20260501163120 58 191 6.0 18.0 0.02 0.25 0.24 61 1011.5
20260501162637 57 154 5.0 12.0 0.01 0.24 0.23 60 1011.6
20260501162123 57 191 4.0 9.0 0.01 0.24 0.23 59 1011.7